Current weather by "City, St" or "zip code"  
 

Current Conditions: Oakdale, Allen Parish Airport, LA

Partly Cloudy


57.0 F

Last Updated on Oct 26 2020, 6:55 am CDT
Humidity: 94%
Wind Speed: N 0.0 mph
Barometer 30.02 in
Dewpoint: 55.4 F
Visibility: 7.00 mi
Precip: --
Heat Index: NA
Wind Chill: NA
Current conditions at:

Oakdale, Allen Parish Airport, LA (KACP)

Lat: 30.75056 Lon: 92.68861

Local Radar Image active severe weather and emergency alerts image image weather storm and storm spotter reports image weather observation monitoring service image
Local
Radar
Active
Alerts
Storm Reports Obs
Monitoring

Sign-up For Email & Text Message Weather Alert Notification Services



Advertise Here

Observation History for Oakdale, Allen Parish Airport, LA


Time Wind
(mph)
Vis
(mi)
Weather Precip (in) Temperature (F) Relative
Humidity
Wind
Chill
(F)
Heat
Index
(F)
Pressure
Air Dwpt altimeter
(in)
sea level
(mb)
Rmks
6:55 am CDT N 0.0 7.00 Partly Cloudy -- 57.0 55.4 94% NA NA 30.02 M
5:55 am CDT N 0.0 7.00 Fair -- 57.0 55.4 94% NA NA 30.00 M
4:55 am CDT N 0.0 10.00 Fair -- 59.0 57.2 94% NA NA 29.99 M
3:55 am CDT N 0.0 10.00 Partly Cloudy -- 59.0 57.2 94% NA NA 29.99 M
2:55 am CDT N 0.0 10.00 Overcast -- 61.0 57.2 88% NA NA 30.00 M
1:55 am CDT N 0.0 10.00 Overcast -- 61.0 57.2 88% NA NA 29.99 M
12:55 am CDT N 0.0 10.00 Overcast -- 61.0 57.2 88% NA NA 30.01 M
11:55 pm CDT N 0.0 10.00 Overcast -- 61.0 57.2 88% NA NA 30.01 M
10:55 pm CDT N 0.0 10.00 Overcast -- 61.0 57.2 88% NA NA 30.01 M
9:55 pm CDT N 0.0 10.00 Overcast -- 61.0 57.2 88% NA NA 30.00 M
8:55 pm CDT N 0.0 10.00 Overcast -- 61.0 59.0 94% NA NA 29.98 M
7:55 pm CDT N 0.0 10.00 Fair -- 59.0 57.2 94% NA NA 29.97 M
6:55 pm CDT N 0.0 10.00 Mostly Cloudy -- 63.0 57.2 83% NA NA 29.96 M
5:55 pm CDT N 0.0 10.00 Overcast -- 66.0 59.0 78% NA NA 29.96 M
4:55 pm CDT N 0.0 10.00 Overcast -- 66.0 59.0 78% NA NA 29.96 M
3:55 pm CDT N 3.5 10.00 Overcast -- 68.0 57.2 69% NA NA 29.96 M
2:55 pm CDT N 0.0 10.00 Overcast -- 66.0 57.2 73% NA NA 29.97 M
1:55 pm CDT N 0.0 10.00 Overcast -- 66.0 57.2 73% NA NA 30.00 M
12:55 pm CDT N 0.0 10.00 Overcast -- 63.0 55.4 77% NA NA 30.02 M
11:55 am CDT N 0.0 10.00 Overcast -- 61.0 55.4 83% NA NA 30.04 M
10:55 am CDT N 0.0 10.00 Overcast -- 57.0 53.6 88% NA NA 30.05 M
9:55 am CDT N 0.0 4.00 Fog/Mist -- 55.0 53.6 94% NA NA 30.04 M
8:55 am CDT N 0.0 5.00 Fog/Mist -- 55.0 53.6 94% NA NA 30.03 M
7:55 am CDT N 0.0 7.00 Overcast -- 55.0 53.6 94% NA NA 30.01 M

Regional Weather Observation


Oakdale, Allen Parish Airport, LA (KACP)

Partly Cloudy
57.0 F

Fort Polk, Polk AAF Ft Polk, LA (KPOE)

Overcast
59.0 F

Ft. Polk/Self Strip, LA (KDNK)

Light Rain
66.0 F

De Ridder, Beauregard Parish Airport, LA (KDRI)

Overcast
60.0 F

Alexandria, Alexandria International Airport, LA (KAEX)

Overcast
59.0 F

Ft. Polk - Peason Ridge, LA (KAQV)

Overcast
59.0 F